Regional Weather Roundup
Issued by NWS Grand Forks, ND

Home | Current Version | Previous Version | Text Only | Print | Product List | Glossary Off
Versions: 1 2 3 4 5 6 7 8 9 10 11 12 13 14 15 16 17 18 19 20 21 22 23 24 25 26 27 28 29 30 31 32 33 34 35 36 37 38 39 40 41 42 43 44 45 46 47 48 49 50

000
ASUS43 KFGF 221410
RWRFGF
PRAIRIE TO PINES  WEATHER ROUNDUP
NATIONAL WEATHER SERVICE EASTERN NORTH DAKOTA/GRAND FORKS ND
900 AM CDT WED MAR 22 2017

 **SATELLITE DATA USED TO AUGMENT SKY COVER AT AUTOMATED STATIONS**
 *****  WEATHER ACROSS EASTERN NORTH DAKOTA  *****

CITY           SKY/WX    TMP DP  RH WIND       PRES   REMARKS
GRAND FORKS    CLOUDY    22   6  50 SE17      30.39F WCI   8
GRAND FRKS AFB CLOUDY    21  10  61 S17       30.39F WCI   7
DEVILS LAKE    CLOUDY    22  14  71 SE18      30.26F WCI   7
FARGO          CLOUDY    24   9  52 SE15      30.42F WCI  11
WAHPETON ARPT  CLOUDY    23  10  58 SE18      30.43F WCI   9
$$

 ***** WEATHER ACROSS CENTRAL AND WESTERN NORTH DAKOTA  *****

CITY           SKY/WX    TMP DP  RH WIND       PRES   REMARKS
BISMARCK       PTSUNNY   28  20  71 SE20      30.15F WCI  15
MINOT          CLOUDY    25  17  72 SE15G26   30.10F WCI  13
JAMESTOWN      CLOUDY    24  15  68 SE22G29   30.26F WCI   9
MINOT AFB      CLOUDY    24  17  77 SE21G28   30.10F WCI   9
GARRISON         N/A     23  18  81 SE18      30.07F WCI   9
WILLISTON      CLOUDY    31  23  72 S12G23    29.96F WCI  22
DICKINSON      CLOUDY    28  22  78 SE29G35   29.92F WCI  12
HETTINGER      CLOUDY    28  24  85 SE16G25   29.97F WCI  16
$$

 *****  OTHER AIRPORT OBSERVATIONS IN OUR AREA  *****

CITY           SKY/WX    TMP DP  RH WIND       PRES   REMARKS
WALHALLA       NOT AVBL
GRAFTON AIRPOR CLOUDY    21  12  68 SE17G23   30.41F WCI   7
VALLEY CITY AR FLURRIES  21  14  73 SE21      30.33F WCI   6
CANDO          NOT AVBL
CAVALIER APRT  NOT AVBL
GWINNER        CLOUDY    25  16  68 MISG      30.35F
SHEYENNE NWR     N/A     23  10  58 SE14      29.95S WCI  11
ROLLA          CLOUDY    18  12  79 S22       30.20F WCI   0
 ***** THE ABOVE OBSERVATIONS ARE NON NWS ARE NOT QUALITY
       CONTROLLED AND MAY MIS-REPORT RAIN FOR SNOW...
$$

  *****  WEATHER ACROSS NORTHERN MINNESOTA  *****

CITY           SKY/WX    TMP DP  RH WIND       PRES   REMARKS
FLAG ISLAND    FAIR      12   5  73 S15       30.48S WCI  -4
WARROAD        FAIR      19   7  58 SE12      30.46F WCI   7
ROSEAU         FAIR      19   7  58 S15       30.45F WCI   5
HALLOCK        FAIR      21  10  63 SE15      30.42F WCI   8
THF RVR FALLS  FAIR      20   6  55 SE14G21   30.44F WCI   7
BAUDETTE       FAIR      16   5  62 SE8       30.48S WCI   5
WASKISH        FAIR      18   7  62 SE7       30.48S WCI   8
CROOKSTON      FAIR      21   9  58 SE17      30.43F WCI   7
GREENBUSH NDAW   N/A     19   9  63 SE14        N/A  WCI   6
$$
  *****  WEATHER ACROSS CENTRAL AND WEST MINNESOTA  *****

CITY           SKY/WX    TMP DP  RH WIND       PRES   REMARKS
FOSSTON        FAIR      19   5  53 SE10      30.43F WCI   8
BEMIDJI        FAIR      18   5  57 SE13      30.45F WCI   4
PARK RAPIDS    FAIR      20   2  45 SE14      30.45F WCI   7
ELBOW LAKE     CLOUDY    23   8  52 SE13G21   30.45S WCI  11
WADENA         FAIR      19   7  58 SE14      30.46F WCI   6
DETROIT LAKES  FAIR      23   9  54 SE15      30.44S WCI  10
MOORHEAD       CLOUDY    23   9  54 SE16G23   30.43F WCI  10
FERGUS FALLS   CLOUDY    23   7  50 SE17      30.48F WCI   9
MORRIS MN      CLOUDY    25  12  58 SE20      30.44S WCI  11
STAPLES        FAIR      18   7  62 SE7       30.48F WCI   8
$$
  *****  WEATHER ELSEWHERE ACROSS MINNESOTA  *****

CITY           SKY/WX    TMP DP  RH WIND       PRES   REMARKS
DULUTH         FAIR      21  12  68 SE14      30.52S WCI   8
INTRNTL FALLS  FAIR      13   2  61 SE7       30.51F WCI   3
ELY            FAIR      12   1  62 CALM      30.52F
CLOQUET        FAIR      19   5  53 SE7       30.53S WCI  10
WHEATON        CLOUDY    23  12  63 SE18      30.45F WCI   9
BRAINERD       FAIR      19   7  59 SE10      30.52R WCI   7
HIBBING        FAIR      15   3  59 SE7       30.52F WCI   5
ALEXANDRIA     FAIR      21   7  54 SE12      30.47S WCI   9
SAINT CLOUD    FAIR      21   7  54 SE9       30.52F WCI  11
MINNEAPOLIS    FAIR      25   8  48 SE9       30.55F WCI  15
$$

  *****  WEATHER ACROSS SOUTH DAKOTA  *****

CITY           SKY/WX    TMP DP  RH WIND       PRES   REMARKS
SIOUX FALLS    CLOUDY    28  16  60 SE15G23   30.41S WCI  16
BROOKINGS      PTSUNNY   26  14  60 SE16      30.38S WCI  14
WATERTOWN      CLOUDY    25  12  58 SE17      30.34F WCI  12
HURON          CLOUDY    29  17  61 SE18G25   30.34F WCI  16
SISSETON         N/A     24  15  68 S17       30.40F WCI  11
ABERDEEN       CLOUDY    28  17  63 SE18      30.32F WCI  15
MITCHELL       CLOUDY    31  18  58 SE18      30.36F WCI  19
PIERRE         CLOUDY    30  26  85 SE20      30.18F WCI  17
MOBRIDGE       PTSUNNY   30  22  72 SE23G30   30.12F WCI  17
RAPID CITY     FAIR      36  31  82 S24G33    29.92F
$$

  *****  SOME WEATHER IN NEARBY STATES *****

CITY           SKY/WX    TMP DP  RH WIND       PRES   REMARKS
GLASGOW MT     CLOUDY    33  28  81 SE14      29.80F WCI  23
GREAT FALLS MT FAIR      43  32  65 SW15      29.77R
CHEYENNE WY    FAIR      30  26  85 SW10      30.04S WCI  21
SCOTTSBLUFF NE FAIR      38  28  67 SE16      30.05S
OMAHA NE       CLOUDY    33  19  56 SE12      30.43S WCI  24
DES MOINES IA  CLOUDY    32  22  66 E12       30.49S WCI  23
DAVENPORT IA   FAIR      30  17  58 E13       30.56R WCI  20
CHICAGO IL     PTSUNNY   31  16  54 NE16G23   30.55R WCI  20
EAU CLAIRE WI  FAIR      24   8  50 E13       30.57S WCI  12
LA CROSSE WI   FAIR      26   8  46 SE8       30.60R WCI  18
$$

  *****  SOME NATIONAL WEATHER *****

CITY           SKY/WX    TMP DP  RH WIND       PRES   REMARKS
LA GUARDIA NY  MOSUNNY   37  16  42 NW26G38   30.06R
RALEIGH NC     PTSUNNY   58  40  51 VRB6G16   30.08R
ATLANTA GA     FAIR      58  51  78 NW13      30.12R
NEW ORLEANS LA PTSUNNY   68  62  81 NW10      30.17R
OKLAHOMA CITY  PTSUNNY   54  43  66 NE15      30.15R
ALBUQUERQUE NM FAIR      52  33  48 N10       30.14S
SALT LAKE CITY MOCLDY    53  46  77 VRB5      29.87S
LOS ANGELES CA MOCLDY    59  57  93 N5        30.02S
BOISE ID       FAIR      44  38  79 SE9       29.89R
SEATTLE WA     MOCLDY    50  42  74 S12       29.76R
$$

*** WEATHER ACROSS MANITOBA...SASKATCHEWAN AND ONTARIO ***
                ***ONTARIO***

CITY           SKY/WX    TMP DP  RH WIND       PRES   REMARKS
GERALDTON      MOSUNNY    5  -8  56 W5        30.53S WCI  -4
THUNDER BAY    MOSUNNY   12   3  67 VRB2      30.62S
SIOUX LOOKOUT  PTSUNNY    3  -4  72 S3        30.51F
TORONTO        MOSUNNY   18  -4  38 N20G28    30.47R WCI   1
BIG TROUT LK   SUNNY      3  -9  55 W9        30.40F WCI -11
PICKLE LAKE    MOSUNNY    5 -11  47 W5        30.47S WCI  -4
DRYDEN         MOSUNNY   10  -2  56 S7        30.49F WCI   0
KENORA         MOSUNNY   12   0  57 S10       30.46S WCI  -1
$$
                *** MANITOBA***

CITY           SKY/WX    TMP DP  RH WIND       PRES   REMARKS
BRANDON        CLOUDY    16  10  79 SE10G17   30.24F WCI   3
DAUPHIN        PTSUNNY   16  10  79 SE12      30.25F WCI   3
ISLAND LAKE    NOT AVBL
PILOT MOUND      N/A     18  12  79 SE20G25     N/A  WCI   1
THE PAS        CLOUDY    12   1  62 SE10      30.19F WCI  -1
THOMPSON       SUNNY     -2 -13  60 VRB2      30.30F
WINNIPEG       CLOUDY    19   9  63 SE15      30.40F WCI   5
LYNN LAKE      SUNNY     -6 -11  77 SE5       30.15F WCI -17
CHURCHILL      MOSUNNY   -2 -11  65 W7        30.24S WCI -16
GILLAM         MOSUNNY    5 -11  47 SW9       30.32F WCI  -9
$$
                ***SASKATCHEWAN***

CITY           SKY/WX    TMP DP  RH WIND       PRES   REMARKS
ESTEVAN        CLOUDY    25  19  80 SE18G24   30.00F WCI  11
KINDERSLEY     FRZ RAIN  32  28  86 SE17      29.68F WCI  21
LLOYDMINSTER   CLOUDY    25  19  80 SE20      29.71F WCI  11
PRINCE ALBERT  FLURRIES  19  16  86 E12G20    29.94F WCI   7
REGINA         CLOUDY    21  18  86 SE25G35   29.93F WCI   4
YORKTON        CLOUDY    16  12  86 SE16G26   30.07F WCI   0
N. BATTLEFORD  CLOUDY    25  19  80 SE18G28   29.80F WCI  11
LA RONGE       CLOUDY    16   5  62 E9G20     30.00F WCI   4
SASKATOON      CLOUDY    25  18  74 SE22      29.85F WCI  10
SWIFT CURRENT  CLOUDY    32  30  93 S23       29.71F FOG     WCI  19
$$
NOTE: THESE ARE AUTOMATED STATIONS WITH LIMITED QUALITY CONTROL
      "FAIR" INDICATES FEW OR NO CLOUDS BELOW 12,000 FEET WITH NO
      SIGNIFICANT WEATHER AND/OR OBSTRUCTIONS TO VISIBILITY.
      SKY/WX - SKY CONDITION AND SIGNIFICANT WEATHER.
      TMP - AIR TEMPERATURE.    DP   - DEWPOINT TEMPERATURE.
      RH  - RELATIVE HUMIDITY.  PRES - PRESSURE.
      HX  - HEAT INDEX.         WCI  - WIND CHILL INDEX.
$




USA.gov is the U.S. government's official web portal to all federal, state and local government web resources and services.